BANGABANDHUSAT-1

Last updated on Sun Jun 21 2026 00:03:07 GMT+0000 (Coordinated Universal Time)

1 43463U 18044A 26171.44628654 -.00000367 00000+0 00000+0 0 9998 2 43463 0.0361 91.8229 0001868 7.1568 89.4313 1.00273295 29742
UTC large
Height (km)
Speed (km/s)
/
Latitude / Longitude
Inclination (degrees)
Orbital Period (minutes)
Azimuth
Elevation
Range (km)
Doppler Factor

Next 0 passes for location: London (51.5072 / 0.1276)

No passes found over London.
BANGABANDHUSAT-1